Western Prince William Sound (46081)

Conditions for Friday

Daily
Weekly
Monthly
Marine Data Graph

Current Weather/Wave Observations

Air Temperature: 32° F
Humidity: 83
Wind direction (W Dir): NW (305 - 314 Degrees)
Wind Speed (W Spd): 5.8 kts (6.7 mph)
Wind Gust (W Spd): 9.7 kts (11.2 mph)
Dominant Wave Height (DWH): 0.66 ft
Dominant Wave Range (DWR): exactly 0.7 ft
Atmospheric Pressure (AP): 30.50 in
Pressure Tendency (PT): +0.01 in
Increasing, then steady; or increasing, then increasing more slowly

Updated: 10:50 PM AKST on January 30, 2015

Marine & Boating Location Search

Enter a coastal zip code for marine weather.

Current Wave Detail Observations

Water Depth: 1424 ft
Wave Height: 0.62 ft
Spectral Peak Period:
Average Wave Period: 2.6 sec
Sampling Interval: 0.6 sec
Wave Record: 2400 sec

Updated: 11:00 PM AKST on January 30, 2015

General Information

Location: 60.794 North -148.285 West
Buoy Type: 6-meter NOMAD buoy
Buoy Hull: 6N35
Payload: ARES 4.4 payload
Owned by: NDBC
Windspeed: Measured by obtained from anemometer
Sea Surface: Measured by Intake
Note: Station 46081 stopped transmitting 12/04/11. This buoy will be restored to service when it can be worked into the schedule.  When the service date is known, it will be posted in the maintenance report. Funding to support water measurements of the velocity profile, temperature, and salinity is provided by the Prince William Sound Science Center. NDBC ADCPs are now quality controlled using automated methods. Historical and forty-five day files beginning 1 June 2010 are available in a new format that contains more QC information.  The forty-five day files in the old format will be resident until approximately 31 July 2010.

Weather and Wave Data

Time Temp Humidity Wind Pressure
  Air
(°F)
Water
(°F)
  Dir Speed
(kts)
Speed
(mph)
Atmo.
(in)
Tend.
(in)
20:50 34 41 98 NW 1.9 2.2 30.18 +0.06
21:50 34 40 99 NE 1.9 2.2 30.20 +0.07
22:50 34 40 99 NNW 3.9 4.5 30.22 +0.07
23:50 35 40 96 North 3.9 4.5 30.24 +0.06
00:50 34 40 100 North 3.9 4.5 30.27 +0.06
01:50 35 40 95 NW 3.9 4.5 30.29 +0.06
02:50 34 40 99 West 3.9 4.5 30.31 +0.06
03:50 35 40 96 West 5.8 6.7 30.32 +0.06
04:50 35 40 97 WSW 3.9 4.5 30.34 +0.05
05:50 35 40 99 WNW 3.9 4.5 30.35 +0.04
06:50 35 41 100 WNW 1.9 2.2 30.35 +0.03
07:50 35 41 98 West 5.8 6.7 30.37 +0.03
08:50 35 41 99 NW 3.9 4.5 30.38 +0.04
09:50 35 41 100 WNW 1.9 2.2 30.40 +0.05
10:50 34 41 100 West 5.8 6.7 30.42 +0.05
11:50 34 40 99 West 5.8 6.7 30.43 +0.05
12:50 34 40 100 WNW 5.8 6.7 30.44 +0.04
13:50 34 41 99 WNW 3.9 4.5 30.45 +0.04
14:50 34 40 96 NNW 5.8 6.7 30.46 +0.03
15:50 34 40 86 NNW 7.8 8.9 30.47 +0.02
16:50 33 41 90 NW 7.8 8.9 30.47 +0.01
17:50 33 41 90 NW 11.7 13.4 30.48 +0.02
18:50 33 41 87 NW 9.7 11.2 30.49 +0.02
19:50 33 41 88 NNW 5.8 6.7 30.49 +0.02
20:50 32 41 89 NNW 1.9 2.2 30.51 +0.03
21:50 32 41 83 NW 7.8 8.9 30.50 +0.01
22:50 32 41 83 NW 5.8 6.7 30.50 +0.01

Detailed Wave Spectra

Time Water Depth Wave Height Spectral Peak Period Average Wave Period Sampling Interval Wave Record
20:00 1424 ft 0.23 ft 3.9 sec 0.6 sec 2400 sec
21:00 1424 ft 0.23 ft 4.1 sec 0.6 sec 2400 sec
22:00 1424 ft 0.23 ft 4.0 sec 0.6 sec 2400 sec
23:00 1424 ft 0.20 ft 4.0 sec 0.6 sec 2400 sec
00:00 1424 ft 0.20 ft 3.9 sec 0.6 sec 2400 sec
01:00 1424 ft 0.20 ft 3.9 sec 0.6 sec 2400 sec
02:00 1424 ft 0.23 ft 3.2 sec 0.6 sec 2400 sec
03:00 1424 ft 0.20 ft 3.1 sec 0.6 sec 2400 sec
04:00 1424 ft 0.20 ft 2.8 sec 0.6 sec 2400 sec
05:00 1424 ft 0.13 ft 3.2 sec 0.6 sec 2400 sec
06:00 1424 ft 0.16 ft 3.4 sec 0.6 sec 2400 sec
07:00 1424 ft 0.26 ft 3.5 sec 0.6 sec 2400 sec
08:00 1424 ft 0.30 ft 3.9 sec 0.6 sec 2400 sec
09:00 1424 ft 0.30 ft 3.7 sec 0.6 sec 2400 sec
10:00 1424 ft 0.23 ft 3.2 sec 0.6 sec 2400 sec
11:00 1424 ft 0.26 ft 3.1 sec 0.6 sec 2400 sec
12:00 1424 ft 0.26 ft 2.7 sec 0.6 sec 2400 sec
13:00 1424 ft 0.26 ft 2.6 sec 0.6 sec 2400 sec
14:00 1424 ft 0.39 ft 3.4 sec 0.6 sec 2400 sec
16:00 1424 ft 0.52 ft 2.5 sec 0.6 sec 2400 sec
17:00 1424 ft 0.46 ft 2.4 sec 0.6 sec 2400 sec
18:00 1424 ft 0.49 ft 2.4 sec 0.6 sec 2400 sec
19:00 1424 ft 0.56 ft 2.4 sec 0.6 sec 2400 sec
20:00 1424 ft 0.43 ft 2.4 sec 0.6 sec 2400 sec
21:00 1424 ft 0.39 ft 2.4 sec 0.6 sec 2400 sec
22:00 1424 ft 0.52 ft 2.5 sec 0.6 sec 2400 sec
23:00 1424 ft 0.62 ft 2.6 sec 0.6 sec 2400 sec